Time,TemperatureF,DewpointF,PressureIn,WindDirection,WindDirectionDegrees,WindSpeedMPH,WindSpeedGustMPH,Humidity,HourlyPrecipIn,Conditions,Clouds,dailyrainin,SoftwareType,DateUTC
2013-04-11 00:05:00,53.9,52.8,30.19,ENE,65,0.0,0.0,96,0.00,,,0.00,Wunderground v.1.15,2013-04-10 14:05:00,
2013-04-11 00:10:00,53.9,52.8,30.19,North,-999,0.0,0.0,96,0.00,,,-99.99,WeatherLink 5.9.3,2013-04-10 14:10:00,
2013-04-11 00:16:00,53.5,52.4,30.19,ENE,65,0.0,0.0,96,0.00,,,0.00,Wunderground v.1.15,2013-04-10 14:16:00,
2013-04-11 00:22:00,53.0,51.6,30.19,ENE,65,0.0,0.0,95,0.00,,,0.00,Wunderground v.1.15,2013-04-10 14:22:00,
2013-04-11 00:28:00,52.7,51.3,30.19,ENE,65,0.0,0.0,95,0.00,,,0.00,Wunderground v.1.15,2013-04-10 14:28:00,
2013-04-11 00:33:00,53.0,51.9,30.19,ENE,65,0.0,0.0,96,0.00,,,0.00,Wunderground v.1.15,2013-04-10 14:33:00,
2013-04-11 00:38:00,53.6,52.8,30.19,ENE,65,0.0,0.0,97,0.00,,,0.00,Wunderground v.1.15,2013-04-10 14:38:00,
2013-04-11 00:44:00,53.6,52.5,30.19,ENE,65,0.0,0.0,96,0.00,,,0.00,Wunderground v.1.15,2013-04-10 14:44:00,
2013-04-11 00:50:00,53.6,52.8,30.19,North,-999,0.0,0.0,97,0.00,,,-99.99,WeatherLink 5.9.3,2013-04-10 14:50:00,
2013-04-11 00:56:00,53.4,52.3,30.19,ENE,64,0.0,0.0,96,0.00,,,0.00,Wunderground v.1.15,2013-04-10 14:56:00,
2013-04-11 01:01:00,53.2,52.1,30.19,ENE,64,0.0,0.0,96,0.00,,,0.00,Wunderground v.1.15,2013-04-10 15:01:00,
2013-04-11 01:07:00,53.2,52.1,30.19,ENE,65,0.0,0.0,96,0.00,,,0.00,Wunderground v.1.15,2013-04-10 15:07:00,
2013-04-11 01:12:00,53.1,52.0,30.18,ENE,65,0.0,0.0,96,0.00,,,0.00,Wunderground v.1.15,2013-04-10 15:12:00,
2013-04-11 01:17:00,53.0,51.9,30.18,ENE,64,0.0,0.0,96,0.00,,,0.00,Wunderground v.1.15,2013-04-10 15:17:00,
2013-04-11 01:23:00,53.0,51.9,30.18,ENE,64,0.0,0.0,96,0.00,,,0.00,Wunderground v.1.15,2013-04-10 15:23:00,
2013-04-11 01:29:00,52.9,51.8,30.18,ENE,64,0.0,0.0,96,0.00,,,0.00,Wunderground v.1.15,2013-04-10 15:29:00,
2013-04-11 01:35:00,53.2,52.4,30.18,ENE,65,0.0,0.0,97,0.00,,,0.00,Wunderground v.1.15,2013-04-10 15:35:00,
2013-04-11 01:40:00,53.0,51.9,30.18,North,-999,0.0,0.0,96,0.00,,,-99.99,WeatherLink 5.9.3,2013-04-10 15:40:00,
2013-04-11 01:46:00,52.7,51.6,30.18,ENE,65,0.0,0.0,96,0.00,,,0.00,Wunderground v.1.15,2013-04-10 15:46:00,
2013-04-11 01:51:00,52.6,51.5,30.18,ENE,65,0.0,0.0,96,0.00,,,0.00,Wunderground v.1.15,2013-04-10 15:51:00,
2013-04-11 01:57:00,52.5,51.4,30.18,ENE,65,0.0,0.0,96,0.00,,,0.00,Wunderground v.1.15,2013-04-10 15:57:00,
2013-04-11 02:02:00,52.1,51.0,30.18,ENE,64,0.0,0.0,96,0.00,,,0.00,Wunderground v.1.15,2013-04-10 16:02:00,
2013-04-11 02:07:00,52.3,51.2,30.17,ENE,64,0.0,0.0,96,0.00,,,0.00,Wunderground v.1.15,2013-04-10 16:07:00,
2013-04-11 02:12:00,52.4,51.3,30.17,ENE,65,0.0,0.0,96,0.00,,,0.00,Wunderground v.1.15,2013-04-10 16:12:00,
2013-04-11 02:17:00,52.1,51.0,30.17,ENE,65,0.0,0.0,96,0.00,,,0.00,Wunderground v.1.15,2013-04-10 16:17:00,
2013-04-11 02:23:00,51.9,50.8,30.17,ENE,64,0.0,0.0,96,0.00,,,0.00,Wunderground v.1.15,2013-04-10 16:23:00,
2013-04-11 02:28:00,51.8,50.7,30.17,ENE,65,0.0,0.0,96,0.00,,,0.00,Wunderground v.1.15,2013-04-10 16:28:00,
2013-04-11 02:33:00,52.0,51.2,30.17,ENE,65,0.0,0.0,97,0.00,,,0.00,Wunderground v.1.15,2013-04-10 16:33:00,
2013-04-11 02:38:00,52.1,51.3,30.17,ENE,65,0.0,0.0,97,0.00,,,0.00,Wunderground v.1.15,2013-04-10 16:38:00,
2013-04-11 02:43:00,51.9,50.8,30.17,ENE,65,0.0,0.0,96,0.00,,,0.00,Wunderground v.1.15,2013-04-10 16:43:00,
2013-04-11 02:48:00,51.8,50.7,30.16,ENE,65,0.0,0.0,96,0.00,,,0.00,Wunderground v.1.15,2013-04-10 16:48:00,
2013-04-11 02:53:00,52.2,51.4,30.16,ENE,65,0.0,0.0,97,0.00,,,0.00,Wunderground v.1.15,2013-04-10 16:53:00,
2013-04-11 02:58:00,52.1,51.3,30.16,ENE,64,0.0,0.0,97,0.00,,,0.00,Wunderground v.1.15,2013-04-10 16:58:00,
2013-04-11 03:03:00,51.9,51.1,30.16,ENE,65,0.0,0.0,97,0.00,,,0.00,Wunderground v.1.15,2013-04-10 17:03:00,
2013-04-11 03:08:00,51.9,51.1,30.16,ENE,65,0.0,0.0,97,0.00,,,0.00,Wunderground v.1.15,2013-04-10 17:08:00,
2013-04-11 03:13:00,51.9,51.1,30.16,ENE,65,0.0,0.0,97,0.00,,,0.00,Wunderground v.1.15,2013-04-10 17:13:00,
2013-04-11 03:18:00,51.8,51.0,30.16,ENE,65,0.0,0.0,97,0.00,,,0.00,Wunderground v.1.15,2013-04-10 17:18:00,